Hourly Weather Belém

Today, 7 July, Tuesday

Time Temperature Precipitation Wind Pressure Humidity
00:00 +24°C° 0.4 mm 3 mps 759 mmHg 96%
01:00 +24°C° 0.5 mm 2 mps 758 mmHg 96%
02:00 +24°C° 0.5 mm 2 mps 757 mmHg 96%
03:00 +24°C° 0 mm 2 mps 757 mmHg 95%
04:00 +24°C° 0.4 mm 2 mps 757 mmHg 95%
05:00 +24°C° 0.4 mm 2 mps 757 mmHg 96%
06:00 +24°C° 0.4 mm 2 mps 757 mmHg 96%
07:00 +26°C° 0.3 mm 2 mps 758 mmHg 90%
08:00 +27°C° 0.3 mm 2 mps 758 mmHg 84%
09:00 +28°C° 0 mm 2 mps 758 mmHg 87%
10:00 +29°C° 0.7 mm 2 mps 758 mmHg 83%
11:00 +30°C° 0.7 mm 2 mps 758 mmHg 79%
12:00 +31°C° 0.7 mm 2 mps 758 mmHg 75%
13:00 +30°C° 0.7 mm 2 mps 757 mmHg 78%
14:00 +30°C° 0.7 mm 2 mps 757 mmHg 80%
15:00 +30°C° 0.7 mm 1 mps 756 mmHg 83%
16:00 +29°C° 0.6 mm 1 mps 756 mmHg 86%
17:00 +28°C° 0.6 mm 2 mps 756 mmHg 89%
18:00 +27°C° 0.6 mm 2 mps 756 mmHg 92%
19:00 +27°C° 0.5 mm 2 mps 757 mmHg 93%
20:00 +26°C° 0.5 mm 2 mps 757 mmHg 94%
21:00 +25°C° 0.5 mm 2 mps 758 mmHg 95%
22:00 +25°C° 0.3 mm 2 mps 758 mmHg 95%
23:00 +25°C° 0.3 mm 2 mps 758 mmHg 95%

Tomorrow, 8 July, Wednesday

Time Temperature Precipitation Wind Pressure Humidity
00:00 +25°C° 0.3 mm 2 mps 758 mmHg 96%
01:00 +25°C° 0.6 mm 2 mps 758 mmHg 96%
02:00 +25°C° 0.6 mm 2 mps 757 mmHg 96%
03:00 +25°C° 0.6 mm 2 mps 757 mmHg 96%
04:00 +25°C° 0.1 mm 2 mps 757 mmHg 95%
05:00 +25°C° 0.1 mm 1 mps 757 mmHg 95%
06:00 +24°C° 0.1 mm 1 mps 757 mmHg 94%
07:00 +26°C° 0.1 mm 1 mps 757 mmHg 88%
08:00 +27°C° 0.1 mm 1 mps 758 mmHg 82%
09:00 +29°C° 0.1 mm 1 mps 758 mmHg 76%
10:00 +31°C° 0 mm 1 mps 758 mmHg 67%
11:00 +33°C° 0 mm 1 mps 758 mmHg 57%
12:00 +35°C° 0 mm 1 mps 758 mmHg 47%
13:00 +34°C° 0 mm 2 mps 757 mmHg 54%
14:00 +32°C° 0 mm 2 mps 756 mmHg 62%
15:00 +31°C° 0 mm 2 mps 755 mmHg 69%
16:00 +30°C° 0.1 mm 3 mps 755 mmHg 75%
17:00 +29°C° 0.1 mm 3 mps 755 mmHg 80%
18:00 +28°C° 0.1 mm 3 mps 755 mmHg 86%
19:00 +27°C° 0.5 mm 3 mps 756 mmHg 88%
20:00 +27°C° 0.5 mm 3 mps 757 mmHg 90%
21:00 +26°C° 0.5 mm 3 mps 757 mmHg 92%
22:00 +26°C° 0.6 mm 3 mps 757 mmHg 93%
23:00 +25°C° 0.6 mm 3 mps 758 mmHg 94%

Day after tomorrow, 9 July, Thursday

Time Temperature Precipitation Wind Pressure Humidity
00:00 +25°C° 0.6 mm 3 mps 758 mmHg 95%
01:00 +25°C° 0.7 mm 3 mps 757 mmHg 95%
02:00 +25°C° 0.7 mm 3 mps 757 mmHg 95%
03:00 +25°C° 0.7 mm 3 mps 757 mmHg 96%
04:00 +24°C° 0.4 mm 2 mps 757 mmHg 96%
05:00 +24°C° 0.4 mm 2 mps 757 mmHg 97%
06:00 +24°C° 0.4 mm 2 mps 757 mmHg 97%
07:00 +26°C° 0.1 mm 1 mps 757 mmHg 90%
08:00 +27°C° 0.1 mm 1 mps 758 mmHg 83%
09:00 +29°C° 0.1 mm 1 mps 758 mmHg 76%
10:00 +31°C° 0 mm 1 mps 758 mmHg 66%
11:00 +33°C° 0 mm 1 mps 758 mmHg 56%
12:00 +36°C° 0 mm 2 mps 758 mmHg 46%
13:00 +35°C° 0 mm 2 mps 757 mmHg 50%
14:00 +35°C° 0 mm 2 mps 757 mmHg 54%
15:00 +34°C° 0 mm 2 mps 756 mmHg 57%
16:00 +32°C° 0 mm 2 mps 756 mmHg 62%
17:00 +31°C° 0 mm 2 mps 756 mmHg 67%
18:00 +30°C° 0 mm 2 mps 756 mmHg 72%
19:00 +29°C° 0.1 mm 3 mps 757 mmHg 75%
20:00 +28°C° 0.1 mm 3 mps 757 mmHg 78%
21:00 +27°C° 0.1 mm 3 mps 758 mmHg 82%
22:00 +27°C° 0.1 mm 3 mps 758 mmHg 84%
23:00 +26°C° 0.1 mm 3 mps 758 mmHg 86%

10 July, Friday

Time Temperature Precipitation Wind Pressure Humidity
00:00 +26°C° 0.1 mm 3 mps 759 mmHg 88%
01:00 +26°C° 0 mm 3 mps 758 mmHg 90%
02:00 +25°C° 0 mm 3 mps 758 mmHg 92%
03:00 +25°C° 0 mm 3 mps 757 mmHg 94%
04:00 +24°C° 0 mm 3 mps 757 mmHg 94%
05:00 +24°C° 0 mm 3 mps 757 mmHg 94%
06:00 +24°C° 0 mm 3 mps 757 mmHg 94%
07:00 +26°C° 0 mm 3 mps 758 mmHg 87%
08:00 +28°C° 0 mm 3 mps 758 mmHg 79%
09:00 +29°C° 0 mm 3 mps 759 mmHg 71%
10:00 +31°C° 0 mm 3 mps 759 mmHg 64%
11:00 +34°C° 0 mm 3 mps 759 mmHg 57%
12:00 +35°C° 0 mm 3 mps 758 mmHg 50%
13:00 +35°C° 0.2 mm 3 mps 758 mmHg 50%
14:00 +35°C° 0.2 mm 3 mps 757 mmHg 50%
15:00 +35°C° 0.2 mm 3 mps 757 mmHg 50%
16:00 +33°C° 0.2 mm 3 mps 757 mmHg 61%
17:00 +30°C° 0.2 mm 3 mps 757 mmHg 72%
18:00 +28°C° 0.2 mm 3 mps 757 mmHg 83%
19:00 +27°C° 0.2 mm 3 mps 757 mmHg 86%
20:00 +27°C° 0.2 mm 3 mps 758 mmHg 88%
21:00 +26°C° 0.2 mm 3 mps 758 mmHg 91%
22:00 +26°C° 0.2 mm 3 mps 758 mmHg 91%
23:00 +26°C° 0.2 mm 3 mps 758 mmHg 91%

11 July, Saturday

Time Temperature Precipitation Wind Pressure Humidity
00:00 +25°C° 0.2 mm 3 mps 759 mmHg 91%
01:00 +25°C° 0 mm 3 mps 758 mmHg 91%
02:00 +25°C° 0 mm 3 mps 758 mmHg 92%
03:00 +25°C° 0 mm 3 mps 757 mmHg 92%
04:00 +24°C° 0 mm 3 mps 757 mmHg 93%
05:00 +24°C° 0 mm 3 mps 757 mmHg 94%
06:00 +24°C° 0 mm 2 mps 757 mmHg 95%
07:00 +26°C° 0 mm 3 mps 758 mmHg 87%
08:00 +28°C° 0 mm 3 mps 758 mmHg 78%
09:00 +29°C° 0 mm 3 mps 759 mmHg 70%
10:00 +31°C° 0 mm 3 mps 759 mmHg 63%
11:00 +33°C° 0 mm 3 mps 758 mmHg 57%
12:00 +35°C° 0 mm 2 mps 758 mmHg 51%
13:00 +35°C° 0.2 mm 3 mps 758 mmHg 52%
14:00 +35°C° 0.2 mm 3 mps 757 mmHg 53%
15:00 +35°C° 0.2 mm 3 mps 756 mmHg 54%
16:00 +31°C° 0.6 mm 3 mps 757 mmHg 67%
17:00 +29°C° 0.6 mm 2 mps 757 mmHg 80%
18:00 +27°C° 0.6 mm 2 mps 757 mmHg 93%
19:00 +26°C° 0.4 mm 2 mps 757 mmHg 94%
20:00 +26°C° 0.4 mm 2 mps 758 mmHg 95%
21:00 +25°C° 0.4 mm 2 mps 758 mmHg 95%
22:00 +25°C° 0.1 mm 2 mps 758 mmHg 96%
23:00 +25°C° 0.1 mm 2 mps 758 mmHg 96%

12 July, Sunday

Time Temperature Precipitation Wind Pressure Humidity
00:00 +25°C° 0.1 mm 2 mps 758 mmHg 96%
01:00 +24°C° 0 mm 2 mps 758 mmHg 96%
02:00 +24°C° 0 mm 2 mps 757 mmHg 97%
03:00 +24°C° 0 mm 2 mps 757 mmHg 97%
04:00 +24°C° 0.1 mm 2 mps 757 mmHg 97%
05:00 +24°C° 0.1 mm 2 mps 757 mmHg 97%
06:00 +24°C° 0.1 mm 2 mps 757 mmHg 97%
07:00 +25°C° 0 mm 2 mps 758 mmHg 90%
08:00 +27°C° 0 mm 2 mps 758 mmHg 84%
09:00 +29°C° 0 mm 2 mps 759 mmHg 78%
10:00 +31°C° 0 mm 2 mps 758 mmHg 67%
11:00 +34°C° 0 mm 2 mps 758 mmHg 56%
12:00 +36°C° 0 mm 2 mps 758 mmHg 45%
13:00 +36°C° 0 mm 2 mps 757 mmHg 44%
14:00 +36°C° 0 mm 2 mps 757 mmHg 43%
15:00 +37°C° 0 mm 2 mps 756 mmHg 41%
16:00 +35°C° 0.1 mm 3 mps 756 mmHg 52%
17:00 +33°C° 0.1 mm 3 mps 756 mmHg 62%
18:00 +30°C° 0.1 mm 4 mps 756 mmHg 73%
19:00 +29°C° 0.2 mm 4 mps 757 mmHg 77%
20:00 +28°C° 0.2 mm 3 mps 757 mmHg 80%
21:00 +27°C° 0.2 mm 3 mps 758 mmHg 84%
22:00 +26°C° 0.4 mm 3 mps 758 mmHg 87%
23:00 +25°C° 0.4 mm 3 mps 758 mmHg 89%
Show more